Overview Statistics Trail Chart Weather Telemetry Raw packets
 

This is the latest recevied weather packets stored in our database for station/object HS3UAA-1. If no packets are shown the sender has not sent any weather packets the latest 10 day(s).

<< 94 95 96 97 98 99 100 >>
Time Temp. Humidity Pressure Rain* Wind** Luminosity Snow
1787882230 29.44° C 52% 997 hPa - - 0 W/m² -
1787881586 29.44° C 48% 997 hPa - - 0 W/m² -
1787881264 29.44° C 52% 997 hPa - - 0 W/m² -
1787880942 29.44° C 52% 997 hPa - - 0 W/m² -
1787880620 28.89° C 51% 997 hPa - - 0 W/m² -
1787880300 28.89° C 50% 997 hPa - - 0 W/m² -
1787879976 29.44° C 51% 997 hPa - - 0 W/m² -
1787879655 29.44° C 51% 997 hPa - - 0 W/m² -
1787879332 29.44° C 50% 997 hPa - - 0 W/m² -
1787879010 28.89° C 49% 996 hPa - - 0 W/m² -
1787878688 28.89° C 52% 996 hPa - - 0 W/m² -
1787878141 29.44° C 49% 996 hPa - - 0 W/m² -
1787877819 29.44° C 50% 996 hPa - - 0 W/m² -
1787877497 29.44° C 51% 996 hPa - - 0 W/m² -
1787877175 29.44° C 51% 996 hPa - - 0 W/m² -
1787876853 30° C 49% 996 hPa - - 0 W/m² -
1787876531 30° C 47% 996 hPa - - 0 W/m² -
1787876208 30° C 46% 996 hPa - - 0 W/m² -
1787875886 30° C 45% 996 hPa - - 0 W/m² -
1787875565 31.11° C 44% 996 hPa - - 0 W/m² -
1787875242 32.78° C 49% 996 hPa - - 0 W/m² -
1787874920 32.78° C 50% 996 hPa - - 0 W/m² -
1787874598 32.22° C 51% 996 hPa - - 0 W/m² -
1787874276 33.33° C 48% 996 hPa - - 0 W/m² -
1787873954 33.33° C 49% 995 hPa - - 0 W/m² -

* Rain since midnight (hover to see other rain measurements)
** Current wind speed in m/s (hover to see current wind gust speed)